SL-14 DEB, 45272

Orbit data source: Space-Track

SL-14 DEB, 45272 is space debris in LEO originally from a launch on Thu, 15 Aug 1991 UTC launched from the Plesetsk Missile And Space Complex (PKMTR). Debris objects in space refer to the collection of defunct objects orbiting the Earth. Examples of debris include non-operational satellites, rocket bodies, and fragments generated from explosions, collisions, or faulty payload assembly.

Loading next visibility...
Identifier
45272, 1991-056J
Orbit
LEO
Country
Flag of CISCIS
Related business
Manufacturer
Unknown
Mission
Spacecraft
Bus & Motor
Unknown
Mass
Unknown
Launch date (UTC)
1991-08-15 (34 years ago)
Launch vehicle
Unknown
Launch site
Plesetsk Missile And Space Complex (PKMTR)
Object type
Payload
Rocket body
Debris
Shape & HBR
Unknown shape, 0.1 m
Radar Cross Section
Small (<0.1 m²)

Expand to show TLE details & history
Last TLE update: 7 hours ago

TLE from 7 hours ago
0 SL-14 DEB
1 45272U 91056J   26038.21425076  .00012023  00000-0  10484-1 0  9993
2 45272  82.6425 116.9150 0179944 245.4395 112.7917 13.78650249298044
Epoch: 2026-02-07T05:08Z
TLE epoch observation values (Epoch: 2026-02-07T05:08:31.265Z)
Latitude
-0.00001°
Longitude
-97.55626°
Altitude
1,024.798 km
Speed
7.313 km/s
True Right ascension
07h 47m 39s
True Declination
0° 00' 00"
Sunlit
Object was in full shadow at epoch
Visualization orbit readout
Latitude
Unknown
Longitude
Unknown
Altitude
Unknown
Speed
Unknown
Apparent Right ascension
Unknown
Apparent Declination
Unknown
Sunlit
N/A
Visualization observer readout
Local Sidereal Time
13:51:48
Azimuth
Unknown
Elevation
Unknown
Doppler factor
Unknown
Orbital elements
Apogee altitude
1,097.982 km
Perigee altitude
833.682 km
Semi-major axis
7,343.969 km
Eccentricity
0.01799
Inclination
82.6425°
RAAN
116.915°
Arg. of periapsis
245.4395°
True anomaly
114.67594°
Mean anomaly
112.7917°
Eccentric anomaly
113.73549°
Mean motion
3.44863 °/min
Orbital period
104.39 mins
BSTAR
0.010484
Loading maneuver chart data...
Computing Atmospheric mass density...
Loading historical data...
Loading historical data...
Loading historical data...
Loading historical data...
Loading historical data...
Loading historical data...
Loading historical data...

Documentation

Showing up to 5 results
|